Погода в Гуастатойе

Гватемала     14°51′41″N   90°02′38″W
темп.,
°C
ветер,
м/с
пор.,
м/с
влажн.,
%
обл.,
%
осадки,
мм/ч
давл.,
гПа
погр.,
м
24 сентября, пт
пт2400:00+16зюз119772 0.1 101613
03:00+16з1198100 0.0 101517
06:00+17зсз119887 0.0 101660
09:00+19сз128979 0.0 1017431
12:00+24ссв226695 0.1 10141196
15:00+24св2267100 0.4 10111205
18:00+19всв119396 1.1 101313
21:00+17юв1195100 0.0 101711
25 сентября, сб
сб2500:00+16зюз119729 0.0 101612
03:00+16з1198100 0.0 101519
06:00+16зсз129984 0.0 101675
09:00+19сз128964 0.0 1017384
12:00+25с11604 0.0 1015936
15:00+25св226615 0.2 10121164
18:00+19в229348 1.8 101417
21:00+17юв119569 0.3 101711
26 сентября, вс
вс2600:00+16ююз009728 0.3 101811
03:00+16з119861 0.0 101631
06:00+16з119940 0.0 101740
09:00+20сз228453 0.0 1018528
12:00+25ссз12625 0.1 10151026
15:00+25всв226618 0.6 10121143
18:00+18в229395 4.9 101521
21:00+17вюв119792 1.3 101815
27 сентября, пн
пн2700:00+16з119818 1.3 101814
03:00+16з119958 0.0 101623
06:00+16з129866 0.0 101774
09:00+21сз118217 0.0 1017545
12:00+25с216271 0.3 10151183
15:00+23всв227997 1.6 1012778
18:00+19в1294100 6.6 101317
21:00+18вюв1297100 4.6 101638
28 сентября, вт
вт2800:00+18вюв1298100 7.3 101551
03:00+17ю1299100 8.2 101587
06:00+17зсз12100100 9.9 1015153
09:00+20ссз1188100 0.0 1016463
12:00+22ссв1183100 1.2 1014583
15:00+22всв1284100 3.8 1011538
18:00+19вюв2294100 9.9 101321
21:00+18ююв2296100 3.8 101536